Regional Weather Roundup
Issued by NWS

Home | Current Version | Previous Version | Graphics & Text | Print | Product List | Glossary On
Versions: 1 2 3 4 5 6 7 8 9 10 11 12 13 14 15 16 17 18 19 20 21 22 23 24 25 26 27 28 29 30 31 32 33 34 35 36 37 38 39 40 41 42 43 44 45 46 47 48
000
ASUS45 KPSR 281810
RWRAZ

ARIZONA HOURLY REGIONAL WEATHER ROUNDUP
NATIONAL WEATHER SERVICE PHOENIX AZ
1100 AM MST WED JUN 28 2017

NOTE: FAIR INDICATES FEW OR NO CLOUDS BELOW 12,000 FEET WITH NO
SIGNIFICANT WEATHER AND/OR OBSTRUCTIONS TO VISIBILITY.

AZZ001>003-036-281900-
NORTHWEST ARIZONA

CITY           SKY/WX    TMP DP  RH WIND       PRES   REMARKS
BULLHEAD CITY  SUNNY    100  23   6 SW15G23   29.71S
KINGMAN        SUNNY     94  24   8 SW25G31   29.91S
6HR MIN TEMP:  70; 6HR MAX TEMP:  94;

$$

AZZ004>008-015-016-018-281900-
NORTH CENTRAL ARIZONA

CITY           SKY/WX    TMP DP  RH WIND       PRES   REMARKS
GRAND CANYON   SUNNY     83  13   7 SW15G28   30.13F
6HR MIN TEMP:  37; 6HR MAX TEMP:  83;

PRESCOTT       SUNNY     85  21   9 S16G23    30.07S
6HR MIN TEMP:  60; 6HR MAX TEMP:  85;

FLAGSTAFF      SUNNY     76  23  14 SW18G31   30.20S
6HR MIN TEMP:  39; 6HR MAX TEMP:  76;

PAYSON         SUNNY     84  34  16 SW14      30.13S
$$

AZZ009>014-017-281900-
NORTHEAST ARIZONA

CITY           SKY/WX    TMP DP  RH WIND       PRES   REMARKS
WINSLOW        SUNNY     93  21   7 SW23G33   30.03F
6HR MIN TEMP:  64; 6HR MAX TEMP:  93;

SAINT JOHNS    SUNNY     88  18   7 SW18G28   30.09S
6HR MIN TEMP:  66; 6HR MAX TEMP:  88;

WINDOW ROCK    SUNNY     84  13   7 W12G23    30.16S
6HR MIN TEMP:  54; 6HR MAX TEMP:  84;

SHOW LOW         N/A    N/A N/A N/A MISG        N/A
$$

AZZ540-542>544-546-548-281900-
GREATER PHOENIX AREA

CITY           SKY/WX    TMP DP  RH WIND       PRES   REMARKS
PHOENIX        MOSUNNY   97  49  19 VRB3      29.81S
6HR MIN TEMP:  84; 6HR MAX TEMP:  99;

BUCKEYE        SUNNY     97  45  16 S9        29.82S
GLENDALE       MOSUNNY   99  52  20 SE8G17    29.83F
LUKE AFB       SUNNY     96  55  24 S13       29.81F
6HR MIN TEMP:  79; 6HR MAX TEMP:  96; 6HR PCP: TRACE;

DEER VALLEY    SUNNY     96  50  20 S7        29.84F
6HR MIN TEMP:  75; 6HR MAX TEMP:  97;

SCOTTSDALE     SUNNY     96  44  16 VRB5      29.86S
6HR MIN TEMP:  82; 6HR MAX TEMP:  97;

MESA-FALCON    SUNNY    N/A N/A N/A W6        29.85S
MESA-GATEWAY   SUNNY     95  54  24 SW10      29.85F
CHANDLER       SUNNY     97  54  23 SW6       29.83F
$$

AZZ539-553-281900-
SOUTHWEST MARICOPA COUNTY AND PINAL COUNTY

CITY           SKY/WX    TMP DP  RH WIND       PRES   REMARKS
CASA GRANDE    SUNNY     97  57  26 SW9       29.85F
6HR MIN TEMP:  74; 6HR MAX TEMP:  97;

GILA BEND      SUNNY    100  49  18 S5        29.78F
6HR MIN TEMP:  81; 6HR MAX TEMP: 101;

$$

AZZ503-504-507>509-281900-
SOUTHEAST ARIZONA

CITY           SKY/WX    TMP DP  RH WIND       PRES   REMARKS
TUCSON         SUNNY     98  49  18 VRB3      29.94F
6HR MIN TEMP:  81; 6HR MAX TEMP:  98;

DAVIS-MONTHAN  SUNNY     96  53  23 W8        29.93F
6HR MIN TEMP:  75; 6HR MAX TEMP:  96;

RYAN FIELD     SUNNY     99  50  19 S9G18     29.92F
NOGALES        SUNNY     93  51  23 SE8G18    30.04F
6HR MIN TEMP:  68; 6HR MAX TEMP:  93;

SIERRA VISTA   SUNNY     91  38  15 W12G22    30.10F
6HR MIN TEMP:  67; 6HR MAX TEMP:  91;

DOUGLAS        SUNNY     92  38  15 NW10G18   30.05F
6HR MIN TEMP:  67; 6HR MAX TEMP:  93;

SAFFORD        SUNNY     97  33  10 W14G22    29.94F
6HR MIN TEMP:  65; 6HR MAX TEMP:  98;

$$

AZZ532-281900-
SOUTHWEST ARIZONA

CITY           SKY/WX    TMP DP  RH WIND       PRES   REMARKS
YUMA           SUNNY     97  61  30 S12       29.74F
6HR MIN TEMP:  76; 6HR MAX TEMP:  98;

$$

CAZ041-043-047-048-061-525>527-560>570-281900-
SOUTHERN CALIFORNIA

CITY           SKY/WX    TMP DP  RH WIND       PRES   REMARKS
DOWNTOWN L.A.  SUNNY     78  59  51 CALM      29.87F
6HR MIN TEMP:  63; 6HR MAX TEMP:  79;

L.A. AIRPORT   MOSUNNY   71  60  68 W10       29.89S
6HR MIN TEMP:  61; 6HR MAX TEMP:  71;

SAN DIEGO      MOSUNNY   70  57  63 NW6       29.90F
6HR MIN TEMP:  62; 6HR MAX TEMP:  70;

BURBANK        SUNNY     77  56  48 S9        29.88S
6HR MIN TEMP:  62; 6HR MAX TEMP:  77;

ONTARIO        SUNNY     82  47  29 CALM      29.87F
6HR MIN TEMP:  62; 6HR MAX TEMP:  82;

RIVERSIDE      SUNNY     82  47  29 VRB5      29.87F
6HR MIN TEMP:  61; 6HR MAX TEMP:  82;

PALM SPRINGS   SUNNY     97  34  11 E9        29.76R
6HR MIN TEMP:  72; 6HR MAX TEMP:  97;

EL CENTRO NAS  SUNNY    100  46  16 E9        29.72F
6HR MIN TEMP:  72; 6HR MAX TEMP: 100;

IMPERIAL       SUNNY    100  49  17 E6        29.71S
6HR MIN TEMP:  75; 6HR MAX TEMP: 100;

BLYTHE         SUNNY     98  48  18 S17G23    29.74F
6HR MIN TEMP:  73; 6HR MAX TEMP:  99;

NEEDLES        SUNNY    104  10   3 S9G18     29.74F
6HR MIN TEMP:  83; 6HR MAX TEMP: 105;

$$

NVZ020-UTZ003-281900-
SOUTHERN NEVADA-UTAH

CITY           SKY/WX    TMP DP  RH WIND       PRES   REMARKS
LAS VEGAS      SUNNY     96  17   5 SE8       29.78S
6HR MIN TEMP:  82; 6HR MAX TEMP:  96;

SALT LAKE CITY MOSUNNY   86  40  19 VRB5      29.87S
6HR MIN TEMP:  67; 6HR MAX TEMP:  86;

$$

NMZ009-TXZ055-281900-
NEW MEXICO-WEST TEXAS

CITY           SKY/WX    TMP DP  RH WIND       PRES   REMARKS
ALBUQUERQUE    CLOUDY    85  19   9 CALM      30.06F
6HR MIN TEMP:  64; 6HR MAX TEMP:  85;

EL PASO        MOSUNNY   95  31  10 W13G23    29.98F
6HR MIN TEMP:  76; 6HR MAX TEMP:  95;

$$


........................KEY........................
SKY/WX - SKY CONDITION/WEATHER
TMP    - TEMPERATURE IN FAHRENHEIT
DP     - DEW POINT IN FAHRENHEIT
RH     - RELATIVE HUMIDITY IN PERCENT
WIND   - DIRECTION AND SPEED IN MILES PER HOUR (MPH)
VRB    - VARIABLE WIND DIRECTION
PRES   - MEAN SEA LEVEL PRESSURE IN INCHES OF MERCURY
         F - FALLING PRESSURE   R - RISING PRESSURE
         S - STEADY PRESSURE
VSB    - VISIBILITY IN MILES
HX     - HEAT INDEX IN FAHRENHEIT
WCI    - WIND CHILL INDEX IN FAHRENHEIT
TC     - TEMPERATURE IN CELSIUS WHICH IS ALSO KNOWN AS
         TEMPERATURE IN CENTIGRADE
AFB    - AIR FORCE BASE
         LUKE AFB IS LUKE AIR FORCE BASE
         DAVIS-MONTHAN IS DAVIS-MONTHAN AIR FORCE BASE
NAS    - NAVAL AIR STATION
         EL CENTRO NAS IS EL CENTRO NAVAL AIR STATION
N/A    - NOT AVAILABLE





USA.gov is the U.S. government's official web portal to all federal, state and local government web resources and services.